Gage Information Page
Francis E. Walter Reservoir, PA

Provisional Data Subject to Revision
Francis E. Walter Reservoir, PA
Amber Threshold Elevation:1392 feet
Red Threshold Elevation:1441 feet
Date (ET) Elevation (ft) Storage (ac-ft) Inflow (cfs) Outflow (cfs)
Jul 7, 2015 12:15 pm 1370.29 20864 872 828
Jul 7, 2015 11:15 am 1370.29 20864 880 828
Jul 7, 2015 10:15 am 1370.28 20858 884 828
Jul 7, 2015   9:15 am 1370.28 20858 896 828
Jul 7, 2015   8:15 am 1370.27 20852 900 828
Jul 7, 2015   7:15 am 1370.27 20852 912 828
Jul 7, 2015   6:15 am 1370.26 20846 916 828
Jul 7, 2015   5:15 am 1370.25 20840 919 828
Jul 7, 2015   4:15 am 1370.24 20835 923 828
Jul 7, 2015   3:15 am 1370.23 20829 927 828
Jul 7, 2015   2:15 am 1370.22 20821 927 828
Jul 7, 2015   1:15 am 1370.20 20813 927 828
Jul 7, 2015 12:15 am 1370.19 20804 927 828
Jul 6, 2015 11:15 pm 1370.17 20796 927 828
Jul 6, 2015 10:15 pm 1370.16 20788 932 828
Jul 6, 2015   9:15 pm 1370.15 20780 943 828
Jul 6, 2015   8:15 pm 1370.13 20772 953 828
Jul 6, 2015   7:15 pm 1370.12 20764 973 828
Jul 6, 2015   6:15 pm 1370.10 20756 983 828
Jul 6, 2015   5:15 pm 1370.09 20747 994 828
Jul 6, 2015   4:15 pm 1370.07 20739 1004 828
Jul 6, 2015   3:15 pm 1370.06 20731 1015 828
Jul 6, 2015   2:15 pm 1370.04 20720 1020 828
Jul 6, 2015   1:15 pm 1370.03 20714 1029 1290
Report Generated Jul 07, 2015 01:24 PM

NWS Web Info
USGS Web Info